Date_and_time,latitude,longitude,wind_speed,RelWindDirFrom,WindDirFrom,air_pressure,air_temperature,relative_humidity,Temp,platform_speed_wrt_ground,air_pressure_at_mean_sea_level,platform_orientation
2019-04-24 23:50,50.6304866666667,-96.9808183333333,12.2,17.9,301,977.30,17.7,22,4.32,0.0,1003.14,360.0
2019-04-25 00:00,50.63045,-96.9807816666667,10.2,15.2,300,977.44,17.5,22,4.29,0.0,1003.29,293.6
2019-04-25 00:10,50.6304516666667,-96.9807733333333,11.5,15.7,302,977.39,17.4,22,4.34,0.0,1003.26,293.6
2019-04-25 00:20,50.6304533333333,-96.98077,10.8,18.1,302,977.46,17.4,22,4.32,0.0,1003.33,293.6
2019-04-25 00:30,50.6304466666667,-96.98076,9.3,14.4,300,977.56,17.3,22,4.25,0.0,1003.43,293.6
2019-04-25 00:40,50.6304483333333,-96.9807816666667,11.2,16.2,306,977.48,17.1,22,4.26,0.0,1003.36,293.6
2019-04-25 00:50,50.6304516666667,-96.98078,9.2,16.3,300,977.60,16.8,22,4.34,0.0,1003.51,293.6
2019-04-25 01:00,50.6304533333333,-96.98078,7.2,11.2,306,977.76,16.5,23,4.45,0.0,1003.69,322.3
2019-04-25 01:10,50.6304533333333,-96.98078,8.9,13.8,7,977.95,12.0,44,4.47,0.0,1004.08,322.3
2019-04-25 01:20,50.6304766666667,-96.9807716666667,7.9,11.5,11,978.15,7.4,63,4.45,0.0,1004.51,322.3
2019-04-25 01:30,50.6304416666667,-96.980775,6.7,9.3,15,978.22,6.5,67,4.40,0.0,1004.62,322.3
2019-04-25 01:40,50.6304483333333,-96.98077,5.7,7.2,17,978.33,5.5,71,4.37,0.0,1004.79,322.3
2019-04-25 01:50,50.6304466666667,-96.98075,5.3,7.7,22,978.44,5.7,68,4.28,0.0,1004.90,322.3
2019-04-25 02:00,50.6304633333333,-96.9807733333333,4.2,6.1,19,978.54,6.0,66,4.29,0.0,1005.00,360.0
2019-04-25 02:10,50.6304566666667,-96.9807633333333,4.5,6.3,28,978.67,6.4,62,4.31,0.0,1005.11,360.0
2019-04-25 02:20,50.6304616666667,-96.9807616666667,4.1,5.6,3,978.83,6.6,60,4.36,0.0,1005.26,360.0
2019-04-25 02:30,50.6304533333333,-96.980785,6.3,7.2,15,978.94,7.3,56,4.32,0.0,1005.36,360.0
2019-04-25 02:40,50.6304516666667,-96.9807683333333,5.3,6.9,9,979.03,7.5,55,4.21,0.0,1005.45,360.0
2019-04-25 02:50,50.6304516666667,-96.9807616666667,4.4,5.3,9,979.10,7.4,55,4.13,0.0,1005.55,360.0
2019-04-25 03:00,50.6304483333333,-96.98076,3.9,5.0,6,979.18,7.2,56,4.13,0.0,1005.85,107.7
2019-04-25 03:10,50.6304483333333,-96.9807616666667,3.5,4.5,354,979.20,7.3,54,4.09,0.0,1006.09,107.7
2019-04-25 03:20,50.6304483333333,-96.9807866666667,3.3,5.4,5,979.27,7.6,53,4.08,0.0,1006.18,107.7
2019-04-25 03:30,50.6304483333333,-96.98077,0.9,3.6,285,979.38,7.3,54,4.16,0.0,1006.36,107.7
2019-04-25 03:40,50.630455,-96.9807516666667,2.3,3.3,220,979.50,7.1,54,4.22,0.0,1006.49,107.7
2019-04-25 03:50,50.6304516666667,-96.9807683333333,2.0,3.5,230,979.57,7.1,54,4.24,0.0,1006.54,107.7
2019-04-25 04:00,50.63045,-96.980765,1.2,6.9,329,979.61,7.2,54,4.31,0.0,1006.56,90.0
2019-04-25 04:10,50.6304483333333,-96.9807616666667,0.9,2.9,265,979.66,6.7,56,4.36,0.0,1006.63,90.0
2019-04-25 04:20,50.6304466666667,-96.9807516666667,3.4,4.4,225,979.77,6.4,57,4.41,0.0,1006.72,90.0
2019-04-25 04:30,50.63045,-96.9807616666667,1.5,3.2,253,979.96,6.5,57,4.32,0.0,1006.89,90.0
2019-04-25 04:40,50.6304533333333,-96.9807633333333,1.4,2.7,329,980.12,6.2,61,4.23,0.0,1007.09,90.0
2019-04-25 04:50,50.630455,-96.9807633333333,2.1,3.0,295,980.26,5.7,61,4.22,0.0,1007.26,90.0
2019-04-25 05:00,50.63045,-96.9807633333333,2.3,2.9,285,980.42,5.6,62,4.24,0.0,1007.42,165.5
2019-04-25 05:10,50.6304583333333,-96.9807733333333,2.7,3.4,274,980.51,5.5,62,4.21,0.0,1007.51,165.5
2019-04-25 05:20,50.63046,-96.9807683333333,3.5,4.8,279,980.59,5.6,61,4.19,0.0,1007.60,165.5
2019-04-25 05:30,50.6304616666667,-96.9807666666667,4.0,5.4,265,980.64,5.6,61,4.27,0.0,1007.67,165.5
2019-04-25 05:40,50.63046,-96.980765,3.2,4.4,254,980.71,5.8,60,4.35,0.0,1007.73,165.5
2019-04-25 05:50,50.6304566666667,-96.9807633333333,3.6,4.5,250,980.77,6.0,59,4.39,0.0,1007.78,165.5
2019-04-25 06:00,50.6304566666667,-96.9807616666667,4.0,5.6,246,980.87,6.1,59,4.42,0.0,1007.89,38.0
2019-04-25 06:10,50.63044,-96.98077,3.9,4.6,245,980.92,5.9,60,4.41,0.0,1007.97,38.0
2019-04-25 06:20,50.6304483333333,-96.9807583333333,3.4,5.1,249,980.97,5.8,59,4.43,0.0,1008.01,38.0
2019-04-25 06:30,50.6304666666667,-96.98075,3.4,4.9,253,980.99,5.8,59,4.43,0.0,1008.06,38.0
2019-04-25 06:40,50.63044,-96.9807483333333,2.8,4.5,252,981.04,5.7,58,4.45,0.0,1008.14,38.0
2019-04-25 06:50,50.6304433333333,-96.9807566666667,2.6,4.3,250,981.08,5.6,57,4.43,0.0,1008.19,38.0
2019-04-25 07:00,50.6304433333333,-96.98076,2.1,4.2,248,981.08,5.3,58,4.34,0.0,1008.21,360.0
2019-04-25 07:10,50.6304466666667,-96.9807633333333,5.1,6.9,250,981.05,5.4,57,4.33,0.0,1008.17,360.0
2019-04-25 07:20,50.6304466666667,-96.980765,6.2,7.3,250,981.09,6.0,53,4.35,0.0,1008.18,360.0
2019-04-25 07:30,50.6304483333333,-96.980765,6.2,7.9,252,981.09,6.1,54,4.35,0.0,1008.17,360.0
2019-04-25 07:40,50.6304483333333,-96.9807666666667,6.3,7.7,263,981.07,5.8,55,4.34,0.0,1008.15,360.0
2019-04-25 07:50,50.6304583333333,-96.9807766666667,6.1,7.5,258,981.07,5.8,54,4.35,0.0,1008.14,360.0
2019-04-25 08:00,50.6304583333333,-96.9807683333333,5.1,5.8,261,981.02,6.6,52,4.38,0.0,1008.07,38.0
2019-04-25 08:10,50.6304533333333,-96.9807666666667,5.6,6.9,265,981.08,6.8,51,4.42,0.0,1008.12,38.0
2019-04-25 08:20,50.6304516666667,-96.9807683333333,6.7,7.5,277,981.08,6.2,54,4.41,0.0,1008.15,38.0
2019-04-25 08:30,50.6304516666667,-96.98077,5.7,7.0,284,981.14,7.0,50,4.37,0.0,1008.17,38.0
2019-04-25 08:40,50.6304516666667,-96.9807716666667,6.0,7.4,282,981.20,6.6,53,4.34,0.0,1008.27,38.0
2019-04-25 08:50,50.6304516666667,-96.9807716666667,6.9,7.9,268,981.30,6.2,54,4.33,0.0,1008.40,38.0
2019-04-25 09:00,50.6304516666667,-96.9807716666667,6.9,8.1,270,981.33,6.8,52,4.32,0.0,1008.40,270.0
2019-04-25 09:10,50.6304533333333,-96.9807716666667,6.5,7.2,269,981.44,6.3,54,4.30,0.0,1008.51,270.0
2019-04-25 09:20,50.6304533333333,-96.98076,6.4,7.3,275,981.51,5.1,58,4.29,0.0,1008.63,270.0
2019-04-25 09:30,50.630455,-96.9807633333333,6.0,7.0,276,981.68,4.9,58,4.27,0.0,1008.83,270.0
2019-04-25 09:40,50.6304583333333,-96.98076,6.0,7.0,269,981.80,5.3,56,4.24,0.0,1008.93,270.0
2019-04-25 09:50,50.63046,-96.9807616666667,4.2,5.4,268,981.83,4.7,60,4.23,0.0,1008.96,270.0
2019-04-25 10:00,50.6304583333333,-96.98076,4.2,5.8,270,981.86,3.8,63,4.22,0.0,1009.02,360.0
2019-04-25 10:10,50.6304583333333,-96.9807583333333,1.9,3.6,254,981.90,3.2,67,4.23,0.0,1009.12,360.0
2019-04-25 10:20,50.6304383333333,-96.9807583333333,4.5,6.9,271,981.92,3.3,65,4.23,0.0,1009.10,360.0
2019-04-25 10:30,50.630455,-96.9807633333333,7.0,8.0,271,982.00,5.0,57,4.20,0.0,1009.12,360.0
2019-04-25 10:40,50.630455,-96.98076,4.5,5.8,254,982.05,4.7,59,4.21,0.0,1009.20,360.0
2019-04-25 10:50,50.630455,-96.98076,5.2,6.3,256,982.07,4.7,57,4.24,0.0,1009.19,360.0
2019-04-25 11:00,50.630455,-96.9807616666667,4.6,6.4,254,981.99,4.8,58,4.28,0.0,1009.13,167.4
2019-04-25 11:10,50.630455,-96.9807616666667,3.6,4.9,248,981.95,4.1,61,4.31,0.0,1009.18,167.4
2019-04-25 11:20,50.6304533333333,-96.98076,4.1,5.8,249,981.96,3.6,63,4.32,0.0,1009.23,167.4
2019-04-25 11:30,50.6304533333333,-96.98076,4.9,6.7,244,981.92,3.6,63,4.33,0.0,1009.17,167.4
2019-04-25 11:40,50.6304516666667,-96.9807616666667,5.6,6.5,239,981.94,3.9,62,4.35,0.0,1009.20,167.4
2019-04-25 11:50,50.630445,-96.9807666666667,6.4,7.8,242,982.03,4.5,60,4.37,0.0,1009.30,167.4
2019-04-25 12:00,50.6304466666667,-96.980765,5.7,6.9,242,982.02,4.6,60,4.36,0.0,1009.32,167.4
2019-04-25 12:10,50.6304433333333,-96.980765,5.5,7.0,242,982.08,4.5,61,4.38,0.0,1009.38,167.4
2019-04-25 12:20,50.6304433333333,-96.980775,6.8,8.6,246,982.13,4.8,60,4.37,0.0,1009.34,167.4
2019-04-25 12:30,50.6304566666667,-96.9807716666667,5.8,7.3,229,982.16,4.2,63,4.30,0.0,1009.41,167.4
2019-04-25 12:40,50.630455,-96.9807733333333,6.3,8.6,237,982.16,4.2,63,4.27,0.0,1009.41,167.4
2019-04-25 12:50,50.6304533333333,-96.9807733333333,6.6,9.4,235,982.21,4.7,61,4.27,0.0,1009.44,167.4
2019-04-25 13:00,50.6304516666667,-96.9807733333333,7.3,9.9,222,981.91,5.1,61,4.26,0.0,1009.14,240.8
2019-04-25 13:10,50.6304516666667,-96.9807716666667,7.1,9.8,236,981.87,6.2,57,4.24,0.0,1009.07,240.8
2019-04-25 13:20,50.6304516666667,-96.98077,7.0,11.0,248,981.95,6.9,56,4.26,0.0,1009.12,240.8
2019-04-25 13:30,50.6304783333333,-96.9807833333333,5.8,9.3,256,981.95,7.1,55,4.24,0.0,1009.09,240.8
2019-04-25 13:40,50.6304533333333,-96.980775,5.1,8.7,240,981.70,7.7,52,4.22,0.0,1008.77,240.8
2019-04-25 13:50,50.63045,-96.9807716666667,6.9,11.9,243,981.78,8.4,49,4.23,0.0,1008.82,240.8
2019-04-25 14:00,50.63045,-96.980775,10.5,17.6,270,981.57,9.7,41,4.21,0.0,1008.54,270.0
2019-04-25 14:10,50.63045,-96.9807733333333,10.8,16.3,270,981.44,10.3,38,4.19,0.0,1008.37,270.0
2019-04-25 14:20,50.63045,-96.9807716666667,11.9,19.1,264,981.42,10.3,37,4.18,0.0,1008.38,270.0
2019-04-25 14:30,50.6304483333333,-96.9807616666667,8.5,14.4,268,981.36,10.2,37,4.19,0.0,1008.31,270.0
2019-04-25 14:40,50.6304516666667,-96.9807666666667,8.7,14.5,256,981.34,10.1,37,4.21,0.0,1008.27,270.0
2019-04-25 14:50,50.63045,-96.98077,10.3,15.8,265,981.23,10.3,36,4.23,0.0,1008.14,270.0
2019-04-25 15:00,50.6304533333333,-96.9807683333333,10.2,15.6,266,981.19,10.4,36,4.24,0.0,1008.03,38.0
2019-04-25 15:10,50.6304483333333,-96.9807483333333,11.4,17.7,267,981.12,10.6,35,4.24,0.0,1007.93,38.0
2019-04-25 15:20,50.630445,-96.980765,11.2,17.5,264,981.15,10.8,35,4.23,0.0,1007.93,38.0
2019-04-25 15:30,50.630445,-96.9807533333333,11.9,18.0,264,981.15,11.1,35,4.16,0.0,1007.90,38.0
2019-04-25 15:40,50.6304466666667,-96.9807583333333,11.5,17.9,278,980.95,11.3,35,3.80,0.0,1007.64,38.0
2019-04-25 15:50,50.630445,-96.98076,10.8,18.5,260,980.99,11.5,35,3.82,0.0,1007.62,38.0
2019-04-25 16:00,50.6304433333333,-96.9807633333333,12.1,19.5,259,981.03,11.8,34,3.84,0.0,1007.61,360.0
2019-04-25 16:10,50.6304433333333,-96.9807633333333,10.8,18.8,265,980.94,12.2,34,3.94,0.0,1007.50,360.0
2019-04-25 16:20,50.6304433333333,-96.980765,10.5,22.1,265,980.91,12.3,34,4.12,0.0,1007.47,360.0
2019-04-25 16:30,50.63047,-96.9807683333333,11.9,19.2,261,981.01,12.5,34,4.10,0.0,1007.56,360.0
2019-04-25 16:40,50.630455,-96.98078,13.6,20.6,276,980.92,12.1,35,4.03,0.0,1007.49,360.0
2019-04-25 16:50,50.6304533333333,-96.980775,10.6,15.8,270,981.18,11.6,36,3.99,0.0,1007.76,360.0
2019-04-25 17:00,50.6304633333333,-96.9807833333333,11.8,21.2,267,981.16,11.9,35,3.90,0.0,1007.73,323.4
2019-04-25 17:10,50.6304516666667,-96.980775,14.9,24.6,260,981.31,11.7,35,3.86,0.0,1007.88,323.4
2019-04-25 17:20,50.6304483333333,-96.9807716666667,13.0,21.1,267,981.30,11.5,37,3.85,0.0,1007.87,323.4
2019-04-25 17:30,50.63045,-96.9807733333333,14.4,26.3,283,981.26,10.6,44,3.85,0.0,1007.86,323.4
2019-04-25 17:40,50.6304483333333,-96.98077,16.5,26.6,279,981.53,10.1,46,3.86,0.0,1008.14,323.4
2019-04-25 17:50,50.6304466666667,-96.9807666666667,16.0,27.4,269,981.78,9.8,46,3.89,0.0,1008.40,323.4
2019-04-25 18:00,50.630445,-96.9807666666667,16.7,29.5,278,981.64,10.1,44,3.94,0.0,1008.23,360.0
2019-04-25 18:10,50.6304466666667,-96.9807733333333,17.3,26.7,269,981.74,10.4,44,3.87,0.0,1008.31,360.0
2019-04-25 18:20,50.630445,-96.9807633333333,16.5,27.2,277,981.74,10.6,44,3.87,0.0,1008.30,360.0
2019-04-25 18:30,50.6304433333333,-96.980765,16.4,24.1,273,981.90,10.2,44,3.90,0.0,1008.50,360.0
2019-04-25 18:40,50.6304416666667,-96.980765,17.2,29.1,273,981.96,9.5,48,3.95,0.0,1008.61,360.0
2019-04-25 18:50,50.6304433333333,-96.980765,16.9,25.7,274,981.79,9.3,48,4.03,0.0,1008.44,360.0
2019-04-25 19:00,50.6304433333333,-96.9807666666667,18.0,27.9,267,981.89,9.6,48,4.09,0.0,1008.53,0.0
2019-04-25 19:10,50.6304433333333,-96.9807666666667,20.7,29.9,276,981.58,9.4,47,4.11,0.0,1008.24,0.0
2019-04-25 19:20,50.6304416666667,-96.9807666666667,19.1,32.4,270,981.94,9.3,47,4.08,0.0,1008.65,0.0
2019-04-25 19:30,50.6304416666667,-96.9807666666667,19.2,27.4,274,981.88,9.2,48,4.10,0.0,1008.62,0.0
2019-04-25 19:40,50.6304416666667,-96.980765,15.0,25.5,288,982.20,9.0,56,4.10,0.0,1008.97,0.0
2019-04-25 19:50,50.6304416666667,-96.980765,16.9,23.8,300,982.30,7.9,63,4.12,0.0,1009.12,0.0
2019-04-25 20:00,50.6304416666667,-96.980765,13.1,21.1,310,982.89,7.1,67,4.15,0.0,1009.74,360.0
2019-04-25 20:10,50.6304416666667,-96.980765,15.4,26.7,322,983.14,6.0,78,4.12,0.0,1010.04,360.0
2019-04-25 20:20,50.6304416666667,-96.980765,16.1,28.0,313,983.44,5.2,86,4.13,0.0,1010.41,360.0
2019-04-25 20:30,50.6304416666667,-96.980765,14.9,24.6,320,983.87,4.9,89,4.17,0.0,1010.90,360.0
2019-04-25 20:40,50.6304516666667,-96.9808083333333,12.5,18.9,308,984.20,4.7,95,4.15,0.0,1011.26,360.0
2019-04-25 20:50,50.6304483333333,-96.9807766666667,13.4,21.0,310,984.35,4.6,97,4.12,0.0,1011.40,360.0
2019-04-25 21:00,50.6304466666667,-96.9807683333333,13.3,21.1,302,984.50,4.4,99,4.14,0.0,1011.57,360.0
2019-04-25 21:10,50.6304416666667,-96.9807516666667,12.5,20.4,307,984.70,4.3,99,4.05,0.0,1011.79,360.0
2019-04-25 21:20,50.6304466666667,-96.98076,12.0,20.4,313,984.86,4.5,97,4.02,0.0,1011.95,360.0
2019-04-25 21:30,50.6304483333333,-96.98076,14.5,22.4,310,984.83,4.7,91,4.00,0.0,1011.91,360.0
2019-04-25 21:40,50.63045,-96.9807633333333,11.9,19.8,299,985.06,4.8,90,3.98,0.0,1012.21,360.0
2019-04-25 21:50,50.6304516666667,-96.9807633333333,12.3,17.5,306,985.08,5.3,86,4.00,0.0,1012.25,360.0
2019-04-25 22:00,50.6304683333333,-96.98079,11.7,21.6,311,985.24,5.6,81,4.04,0.0,1012.44,335.7
2019-04-25 22:10,50.630445,-96.9807666666667,14.3,21.6,308,985.22,5.8,77,3.98,0.0,1012.46,335.7
2019-04-25 22:20,50.6304616666667,-96.9807683333333,13.4,20.0,306,985.39,5.8,74,4.05,0.0,1012.64,335.7
2019-04-25 22:30,50.6304566666667,-96.98077,12.8,18.2,306,985.53,5.8,74,4.04,0.0,1012.79,335.7
2019-04-25 22:40,50.630455,-96.980765,12.9,20.3,311,985.63,5.8,72,4.05,0.0,1012.91,335.7
2019-04-25 22:50,50.6304533333333,-96.9807666666667,12.9,23.1,313,985.85,5.7,71,3.96,0.0,1013.14,335.7
2019-04-25 23:00,50.6304533333333,-96.9807666666667,12.8,20.0,306,986.04,5.6,73,3.98,0.0,1013.35,360.0
2019-04-25 23:10,50.6304533333333,-96.9807666666667,13.6,20.1,302,986.15,5.3,74,3.99,0.0,1013.47,360.0
2019-04-25 23:20,50.6304533333333,-96.980765,11.9,17.4,301,986.35,5.7,73,3.98,0.0,1013.64,360.0
2019-04-25 23:30,50.6304516666667,-96.9807666666667,12.9,20.5,304,986.36,6.4,70,3.95,0.0,1013.61,360.0
